Houston, TX

8:28 PM CDT on July 23, 2017 (GMT -0500)
Hobby

Weather History for KHOU - January, 2013

Change the Weather History Date:

Saturday, January 12, 2013

  Actual Average Record
Temperature  
Mean Temperature 70 °F 53 °F  
Max Temperature 75 °F 63 °F 81 °F (2000)
Min Temperature 64 °F 43 °F 11 °F (1918)
Degree Days  
Heating Degree Days 0 13  
Month to date heating degree days 137 156  
Since 1 July heating degree days 561 695  
Cooling Degree Days 6    
Growing Degree Days 20 (Base 50)    
Moisture  
Dew Point 69 °F    
Average Humidity 92    
Maximum Humidity 100    
Minimum Humidity 84    
Precipitation  
Precipitation 0.10 in 0.11 in 2.27 in (1921)
Month to date precipitation 2.75 1.26  
Year to date precipitation 2.75 1.26  
Sea Level Pressure  
Sea Level Pressure 29.83 in    
Wind  
Wind Speed 10 mph (South)    
Max Wind Speed 24 mph    
Max Gust Speed 31 mph    
Visibility 7 miles    
Events Fog , Rain    
T = Trace of Precipitation, MM = Missing Value Source: NWS Daily Summary

Daily Weather History Graph

Daily Weather History Graph

Search for Another Location

Airport or City:

Trip Planner

Search our weather history database for the weather conditions in past years. The results will help you decide how hot, cold, wet, or windy it might be!

Date:

Astronomy

Jan. 12, 2013 Rise Set
Actual Time 7:17 AM CST 5:42 PM CST
Civil Twilight 6:51 AM CST 6:07 PM CST
Nautical Twilight 6:22 AM CST 6:37 PM CST
Astronomical Twilight 5:53 AM CST 7:06 PM CST
Moon 7:44 AM CST (1/12) 7:02 PM CST (1/12)
Length of Visible Light 11h 16m
Length of Day
10h 24m
New Moon, 1% of the Moon is Illuminated
Jan 12
New Moon
Jan 18
First Quarter
Jan 26
Full
Feb 3
Last Quarter
Feb 10
New

Hourly Weather History & Observations

Time (CST) Temp. Dew Point Humidity Pressure Visibility Wind Dir Wind Speed Gust Speed Precip Events Conditions
12:20 AM 66.2 °F 64.4 °F 94% 29.89 in 0.2 mi Calm Calm - N/A Fog Fog
12:53 AM 66.9 °F 64.9 °F 93% 29.91 in 0.5 mi SSE 3.5 mph - 0.00 in Fog Fog
1:11 AM 69.8 °F 69.8 °F 100% 29.89 in 1.2 mi South 8.1 mph - N/A   Overcast
1:27 AM 71.6 °F 71.6 °F 100% 29.89 in 3.0 mi South 12.7 mph - N/A   Overcast
1:53 AM 71.6 °F 71.6 °F 100% 29.88 in 6.0 mi South 10.4 mph - N/A Rain Light Rain
1:59 AM 71.6 °F 71.6 °F 100% 29.88 in 6.0 mi South 10.4 mph 18.4 mph 0.00 in Rain Light Rain
2:53 AM 73.0 °F 70.0 °F 90% 29.89 in 7.0 mi South 12.7 mph - 0.00 in   Overcast
3:53 AM 72.0 °F 70.0 °F 93% 29.90 in 6.0 mi South 8.1 mph - 0.00 in   Overcast
4:53 AM 72.0 °F 70.0 °F 93% 29.86 in 7.0 mi SSE 13.8 mph 19.6 mph N/A   Overcast
5:53 AM 72.0 °F 69.1 °F 91% 29.84 in 7.0 mi SSE 12.7 mph - N/A   Overcast
6:53 AM 72.0 °F 69.1 °F 91% 29.87 in 8.0 mi South 8.1 mph - N/A   Overcast
7:53 AM 72.0 °F 69.1 °F 91% 29.87 in 9.0 mi SSE 13.8 mph 24.2 mph N/A   Mostly Cloudy
8:03 AM 71.6 °F 69.8 °F 94% 29.86 in 10.0 mi SSE 16.1 mph 24.2 mph N/A   Mostly Cloudy
8:21 AM 73.4 °F 69.8 °F 88% 29.87 in 10.0 mi South 11.5 mph 20.7 mph N/A   Mostly Cloudy
8:53 AM 73.0 °F 69.1 °F 87% 29.89 in 10.0 mi SSE 12.7 mph - N/A   Overcast
9:09 AM 73.4 °F 69.8 °F 88% 29.88 in 10.0 mi SSE 12.7 mph 20.7 mph N/A   Overcast
9:53 AM 73.0 °F 69.1 °F 87% 29.91 in 10.0 mi South 16.1 mph 24.2 mph N/A   Overcast
10:53 AM 73.9 °F 69.1 °F 85% 29.88 in 8.0 mi SSE 16.1 mph 27.6 mph 0.00 in Rain Light Rain
11:53 AM 75.0 °F 69.1 °F 82% 29.84 in 10.0 mi SSE 17.3 mph 27.6 mph 0.00 in   Overcast
12:53 PM 75.0 °F 69.1 °F 82% 29.82 in 10.0 mi SSE 18.4 mph 27.6 mph N/A   Overcast
1:15 PM 75.2 °F 69.8 °F 83% 29.78 in 10.0 mi South 13.8 mph 25.3 mph N/A   Overcast
1:53 PM 75.0 °F 69.1 °F 82% 29.80 in 10.0 mi South 19.6 mph 27.6 mph 0.00 in   Overcast
2:53 PM 73.9 °F 68.0 °F 82% 29.77 in 10.0 mi South 18.4 mph 29.9 mph N/A   Overcast
3:53 PM 73.9 °F 69.1 °F 85% 29.78 in 10.0 mi South 11.5 mph 24.2 mph N/A   Overcast
4:53 PM 73.0 °F 69.1 °F 87% 29.75 in 6.0 mi SSE 15.0 mph 24.2 mph N/A   Overcast
5:27 PM 73.4 °F 69.8 °F 88% 29.73 in 6.0 mi SSE 18.4 mph 26.5 mph N/A   Overcast
5:53 PM 73.0 °F 70.0 °F 90% 29.77 in 6.0 mi South 11.5 mph 21.9 mph N/A   Overcast
6:53 PM 73.4 °F 69.8 °F 88% 29.76 in 5.0 mi South 9.2 mph - N/A Rain Light Rain
7:53 PM 73.0 °F 69.1 °F 87% 29.75 in 5.0 mi SSE 12.7 mph 20.7 mph 0.00 in   Overcast
8:53 PM 73.0 °F 70.0 °F 90% 29.78 in 5.0 mi SSW 11.5 mph - N/A   Overcast
9:53 PM 73.9 °F 69.1 °F 85% 29.76 in 10.0 mi South 13.8 mph - N/A   Overcast
10:53 PM 73.0 °F 69.1 °F 87% 29.80 in 8.0 mi South 8.1 mph - N/A   Overcast
11:53 PM 73.0 °F 69.1 °F 87% 29.79 in 6.0 mi South 6.9 mph - 0.00 in Rain Light Rain